Easy to use

vPilot, FSInn, and Squawkbox

VATSIM has 3 different client software available to choose by the user. The 3 different softwares are relatively easy to use and enjoyable to the user's experience. The software's operating manual is available to download in case user has not been able to fully operate the software to get a real working pilot experience.

Radar that functions similarly to real ATC's radar

EuroScope & VRC

VATSIM uses an advanced radar client simulating real ATC experience in the real world. Although it said to be advanced, both radar clients are very easy to use. Another interesting point is VATSIM has the technology to break the limit between simulation and real life experience.

With VATSIM, you can learn more about aviation.
You can also discuss with other aviation geek.

Unforgettable Experience

Current Activity

No controllers and pilot currently online!

*This information may not be up to date.

METAR

Airport Name - Location (ICAO) METAR
Sultan Hasanuddin - Makassar (WAAA)METAR WAAA 220430Z 28011KT 240V310 8000 FEW020 31/18 Q1011|NOSIG=
I Gusti Ngurah Rai - Denpasar (WADD)METAR WADD 220430Z 11013KT 9999 FEW016 27/23 Q1013|NOSIG=
Ahmad Yani - Semarang (WAHS)METAR WAHS 220430Z 11008KT 030V150 8000 FEW014 32/19 Q1012=
Juanda - Surabaya (WARR)METAR WARR 220400Z 12010KT 9999 FEW020 30/21 Q1013|NOSIG=
Soekarno Hatta - Jakarta (WIII)METAR WIII 220430Z 06011KT 9999 SCT020 32/21 Q1012|NOSIG=
Halim Perdana Kusuma - Jakarta (WIHH)METAR WIHH 220400Z 13005KT 6000 FEW020 32/21 Q1012|NOSIG=
Kualanamu International Airport - Deli Serdang (WIMM)METAR WIMM 220430Z 04004KT 9999 SCT017 31/24 Q1011|NOSIG=

*METAR resource from BMKG. This information may not be up to date.

VATSIM Indonesia vACC VATSIM South East Asia VATSIM Asia